Погода Березино

Погода Березино : погода сейчас, прогноз погоды и архив. Всё, что Вы хотите узнать о погоде Березино!

Хотите узнать прогноз погоды Березино? Тогда Вам сюда: Погода Березино

Поиск расширенной информации на нашем сайте:

Другие новости

Новости СМИ2

Главная страница сайта

Новости сайта

03.07.2017

Напоминаем, что на нашем специализированном сайте Метеоцентр.Азия вы можете получить высокодетализированные автоматические прогнозы погоды по пунктам России, СНГ и мира в авиационном формате (включающие направление и скорость ветра, видимость, явления погоды, количество и форму облачности, нижнюю и верхнюю границу облачности).


Погода Березино - сегодня

Время (UTC), дата Ветер
(°,м/с) 
Видим.   Явления Облачность Т
(°С)
Тd
(°С)
f(%) Тe
(°С)
Pmin
(гПа)
dP
(гПа)
Po
(мм)
O2
(г/м3)
Тmin Tmax R s Состояние
почвы
09 14.08.18 100 (В) 10 км    4/1 1000 м верхняя 
[Cu hum|Ci fib]
+25.9 +14.8 50 +34  1012.7  -0.1  746  272           
12 14.08.18 220 (ЮЗ) 10 км    6/3 1000 м верхняя 
[Cu hum|Ci fib]
+28.4 +12.3 37 +33  1012  -0.6  746  270           
15 14.08.18 160 (Ю) 10 км    5/1 1000 м верхняя 
[Cu hum|Ci sp]
+27.5 +11.8 38 +31  1010.5  -1.5  745  270           
18 14.08.18 160 (Ю) 10 км    6/0 средняя, верхняя 
[Ac cuf|Ci sp]
+22.4 +14.8 62 +31  1010.9  0.1  745  274    +29       
21 14.08.18 140 (ЮВ) 10 км  зарница  5/3 600 м кучево-дожд., верхняя 
[Cb calv|Ci sp]
+20.8 +16.4 76 +32  1009.6  -1.3  744  275           
00 15.08.18 180 (Ю) 1{12}  10 км  зарница{гроза}  6/3 600 м кучево-дожд., верхняя 
[Cb calv|Ci sp]
+20 +16.2 79 +31  1009.3  -0.4  744  276           
06 15.08.18 280 (З) 10 км    9/9 360 м 
[Sc]
+19.8 +16.9 83 +32  1010.6  1.4  745  276  +18.4         
09 15.08.18 290 (З) 10 км    9/8 600 м средняя 
[Frnb|Ac und]
+21 +16 73 +32  1012  1.4  746  276           
12 15.08.18 230 (ЮЗ) 10 км    9/5 600 м верхняя 
[Cu med, cong|Ci sp]
+23.6 +16.2 63 +35  1012.3  0.5  746  273           
15 15.08.18 260 (З) 10 км    9/3 600 м средняя, верхняя 
[Cu med, cong|Ac cast|Ci sp]
+24.6 +14.1 52 +32  1012.5  0.2  746  273           
18 15.08.18 270 (З) 10 км    8/0 средняя, верхняя 
[Ac lent|Ci sp]
+20.2 +16.2 78 +31  1013.6  0.9  747  277    +25       
21 15.08.18 210 (ЮЗ) 10 км    ясно 
+18 +14.9 82 +28  1014.4  0.6  747  279           
00 16.08.18 190 (Ю) 10 км    ясно 
+15.2 +13.9 92 +24  1015.5  0.9  748  283           
06 16.08.18 300 (СЗ) 10 км    10/10 120 м 
[St]
+16.7 +15.9 95 +28  1017.5  1.4  749  281  +13.6         
09 16.08.18 300 (СЗ) 10 км    10/10 450 м 
[St]
+18.6 +15.9 84 +30  1018.4  1.1  750  280           
12 16.08.18 350 (С) 10 км    8/8 1000 м кучево-дожд. 
[Cb calv]
+21.5 +16 71 +32  1018.7  0.5  751  277           
15 16.08.18 030 (СВ) 10 км    3/3 1000 м 
[Cu med, cong]
+23.4 +15.6 62 +33  1018.3  -0.4  750  275           
18 16.08.18 020 (С) 10 км    ясно 
+19.2 +16.5 84 +32  1019.2  0.7  751  279    +24.2       
21 16.08.18 тихо ()   10 км    ясно 
+15.2 +14.5 96 +23  1020.1  0.7  751  284           
00 17.08.18 030 (СВ) 10 км    ясно 
+13.9 +13.3 96 +21  1020.6  0.4  752  286           
06 17.08.18 090 (В) 10 км    8/8 600 м 
[St]
+18.1 +15.9 87 +29  1021.1  0.3  752  281  +12.5         
09 17.08.18 120 (ЮВ) 10 км    9/8 600 м верхняя 
[Cu med, cong|Ci sp]
+23.9 +17.1 66 +36  1020.8  752  275           
12 17.08.18 110 (В) 10 км    8/8 600 м 
[Cu med, cong]
+25.9 +16.7 57 +38  1019.9  -0.7  752  273           
15 17.08.18 110 (В) 10 км    6/5 1000 м верхняя 
[Cu med, cong|Ci sp]
+25.6 +15.9 55 +36  1018.8  -1.1  751  273           
18 17.08.18 080 (В) 10 км    5/5 600 м 
[Sc]
+21.4 +17.4 78 +34  1019.2  0.2  751  277    +26.8       
Время (UTC), дата Ветер
(°,м/с) 
Видим.   Явления Облачность Т
(°С)
Тd
(°С)
f(%) Тe
(°С)
Pmin
(гПа)
dP
(гПа)
Po
(мм)
O2
(г/м3)
Тmin Tmax R s Состояние
почвы

Для получения пояснительной информации подведите курсор к названию столбца.

ПОГОДА Березино - архив

Всё, что Вы хотите узнать о погоде Березино - удобно и подробно!

Выберите нужную дату (начиная с 1 января 2015* года) и нажмите кнопку "Найти".
Будут отображены архивные сводки погоды по пункту Березино, начиная с указанной даты.


Отображать данные в формате CSV (для использования в таблицах Excel)


Внимание! Наш архив погоды предназначен исключительно для личного некоммерческого использования в познавательных целях. Если Вам необходимы официальные справки о состоянии погоды (для производственных, юридических, коммерческих и т.п. целей), обращайтесь в органы Росгидромета.

*Примечание: данная дата относится к архиву по метеостанциям СССР (Россия, СНГ, Балтия).
Архив по метеостанциям Зарубежной Европы и Азии (кроме Китая) хранится 10 дней, по другим регионам земного шара (Китай, Африка, Америка, Австралия, Океания) - 1 день.

Березино - район местоположения метеостанции


Название, широта, долгота, высота метеостанции:
Березино 53.8°ш. 29°д. 154 м над ур. моря [Беларусь]

Дополнительная информация

В oтличие oт бoльшинства пoгoдных сайтoв мы публикуем пoдрoбную метеoинфoрмацию в детальнoм прoфессиoнальнoм фoрмате.

Характеристики температуры и влажнoсти вoздуха измеряются на высoте 2 м в тени вдали oт зданий и деревьев.
Скoрoсть ветра измеряется на высoте 10 м (на урoвне рoста челoвека скoрoсть ветра ниже в 1.5-2 раза). Если метеoстанция нахoдится в гoрoде или в лесу, тo скoрoсть ветра занижена на 2-4 м/с пo сравнению с oткрытым местoм. Скoрoсть ветра над акватoриями крупных рек и oзёр, а также на вершинах хoлмoв на 2-5 м/с выше, чем в oбычных услoвиях.
Атмoсфернoе давление в разных тoчках местнoсти мoжет значительнo oтличаться oт давления на метеoстанции, в зависимoсти oт услoвий рельефа (при пoдъёме на 10 м давление пoнижается примернo на 1 мм рт.ст.).